| time (UTC) | temp F | wind direction | speed MPH | gust MPH | rain 1hr in | rain 24hr in | rain mn in | humidity % | barometer mb |
| 20260504184559 | 65 | 123 | 3.0 | 10.0 | 0.00 | 0.00 | 0.00 | 41 | 1008.8 |
| 20260504183103 | 67 | 222 | 4.0 | 11.0 | 0.00 | 0.00 | 0.00 | 39 | 1008.9 |
| 20260504181556 | 66 | 128 | 2.0 | 10.0 | 0.00 | 0.00 | 0.00 | 42 | 1009.0 |
| 20260504180116 | 66 | 151 | 3.0 | 9.0 | 0.00 | 0.00 | 0.00 | 41 | 1009.1 |
| 20260504174557 | 66 | 205 | 4.0 | 9.0 | 0.00 | 0.00 | 0.00 | 40 | 1009.1 |
| 20260504173109 | 64 | 28 | 5.0 | 13.0 | 0.00 | 0.00 | 0.00 | 41 | 1009.1 |
| 20260504171602 | 66 | 260 | 3.0 | 10.0 | 0.00 | 0.00 | 0.00 | 39 | 1009.5 |
| 20260504160109 | 66 | 146 | 4.0 | 15.0 | 0.00 | 0.00 | 0.00 | 36 | 1010.1 |
| 20260504081608 | 42 | 115 | 0.0 | 2.0 | 0.00 | 0.00 | 0.00 | 64 | 1011.2 |
| 20260504080103 | 42 | 190 | 0.0 | 6.0 | 0.00 | 0.00 | 0.00 | 62 | 1011.2 |
| 20260504044558 | 41 | 75 | 0.0 | 4.0 | 0.00 | 0.00 | 0.00 | 64 | 1011.0 |
| 20260504043059 | 41 | 0 | 0.0 | 4.0 | 0.00 | 0.00 | 0.00 | 65 | 1011.0 |
| 20260504041609 | 41 | 36 | 0.0 | 3.0 | 0.00 | 0.00 | 0.00 | 65 | 1011.1 |
| 20260504040059 | 42 | 0 | 0.0 | 1.0 | 0.00 | 0.00 | 0.00 | 64 | 1011.2 |
| 20260504034623 | 42 | 0 | 0.0 | 2.0 | 0.00 | 0.00 | 0.00 | 61 | 1011.2 |
| 20260504033055 | 43 | 0 | 0.0 | 1.0 | 0.00 | 0.00 | 0.00 | 60 | 1011.2 |
| 20260504031555 | 43 | 0 | 0.0 | 2.0 | 0.00 | 0.00 | 0.00 | 60 | 1011.2 |
| 20260504030058 | 44 | 0 | 0.0 | 2.0 | 0.00 | 0.00 | 0.00 | 58 | 1011.1 |
| 20260504024556 | 45 | 0 | 0.0 | 3.0 | 0.00 | 0.00 | 0.00 | 58 | 1011.3 |
| 20260504023058 | 45 | 0 | 1.0 | 3.0 | 0.00 | 0.00 | 0.00 | 57 | 1011.4 |
| 20260504021554 | 45 | 241 | 0.0 | 3.0 | 0.00 | 0.00 | 0.00 | 60 | 1011.4 |
| 20260504020117 | 45 | 0 | 0.0 | 2.0 | 0.00 | 0.00 | 0.00 | 59 | 1011.1 |
| 20260504014602 | 45 | 0 | 1.0 | 4.0 | 0.00 | 0.00 | 0.00 | 57 | 1011.0 |
| 20260504013123 | 45 | 181 | 0.0 | 4.0 | 0.00 | 0.00 | 0.00 | 60 | 1010.8 |
| 20260504011554 | 45 | 0 | 0.0 | 3.0 | 0.00 | 0.00 | 0.00 | 59 | 1010.8 |
| 20260504010055 | 45 | 0 | 0.0 | 4.0 | 0.00 | 0.00 | 0.00 | 57 | 1010.7 |
| 20260504004555 | 45 | 0 | 0.0 | 4.0 | 0.00 | 0.00 | 0.00 | 57 | 1010.7 |
| 20260504003054 | 45 | 0 | 0.0 | 1.0 | 0.00 | 0.00 | 0.00 | 56 | 1010.5 |
| 20260504001556 | 46 | 186 | 0.0 | 3.0 | 0.00 | 0.00 | 0.00 | 54 | 1010.3 |
| 20260504000107 | 47 | 0 | 0.0 | 4.0 | 0.00 | 0.00 | 0.00 | 54 | 1010.2 |
| 20260503234555 | 47 | 191 | 0.0 | 4.0 | 0.00 | 0.00 | 0.00 | 52 | 1010.2 |
| 20260503233058 | 48 | 258 | 0.0 | 3.0 | 0.00 | 0.00 | 0.00 | 51 | 1010.2 |
| 20260503231555 | 48 | 283 | 2.0 | 8.0 | 0.00 | 0.00 | 0.00 | 50 | 1010.1 |
| 20260503230104 | 49 | 203 | 2.0 | 6.0 | 0.00 | 0.00 | 0.00 | 49 | 1010.2 |
| 20260503224601 | 50 | 194 | 1.0 | 9.0 | 0.00 | 0.00 | 0.00 | 47 | 1010.1 |
| 20260503223056 | 51 | 0 | 3.0 | 9.0 | 0.00 | 0.00 | 0.00 | 46 | 1010.2 |
| 20260503221603 | 51 | 284 | 2.0 | 7.0 | 0.00 | 0.00 | 0.00 | 45 | 1010.0 |
| 20260503220055 | 52 | 345 | 3.0 | 10.0 | 0.00 | 0.00 | 0.00 | 44 | 1010.2 |
| 20260503214600 | 52 | 340 | 3.0 | 9.0 | 0.00 | 0.00 | 0.00 | 44 | 1010.1 |
| 20260503213102 | 52 | 227 | 2.0 | 10.0 | 0.00 | 0.00 | 0.00 | 43 | 1010.0 |
| 20260503211559 | 54 | 314 | 2.0 | 10.0 | 0.00 | 0.00 | 0.00 | 40 | 1009.8 |
| 20260503210056 | 53 | 248 | 3.0 | 13.0 | 0.00 | 0.00 | 0.00 | 38 | 1009.7 |
| 20260503204619 | 53 | 150 | 2.0 | 8.0 | 0.00 | 0.00 | 0.00 | 38 | 1009.6 |
| 20260503203059 | 55 | 250 | 2.0 | 11.0 | 0.00 | 0.00 | 0.00 | 34 | 1009.5 |
| 20260503201555 | 56 | 258 | 4.0 | 9.0 | 0.00 | 0.00 | 0.00 | 33 | 1009.6 |
| 20260503200101 | 54 | 179 | 4.0 | 15.0 | 0.00 | 0.00 | 0.00 | 35 | 1009.7 |
| 20260503194602 | 55 | 185 | 5.0 | 18.0 | 0.00 | 0.00 | 0.00 | 33 | 1009.8 |
| 20260503193108 | 56 | 303 | 4.0 | 14.0 | 0.00 | 0.00 | 0.00 | 31 | 1010.0 |
| 20260503191614 | 55 | 341 | 5.0 | 13.0 | 0.00 | 0.00 | 0.00 | 31 | 1010.3 |
| 20260503190057 | 56 | 145 | 3.0 | 15.0 | 0.00 | 0.00 | 0.00 | 31 | 1010.3 |